Weather History for KELP - July, 2013

Change the Weather History Date:

Thursday, July 25, 2013

  Actual Average Record
Temperature  
Mean Temperature 77 °F 82 °F  
Max Temperature 89 °F 94 °F 105 °F (1995)
Min Temperature 64 °F 71 °F 57 °F (1880)
Degree Days  
Heating Degree Days 0 0  
Month to date heating degree days 0 0  
Since 1 June heating degree days 0 0  
Since 1 July heating degree days 0 0  
Cooling Degree Days 12 17  
Month to date cooling degree days 438 448  
Year to date cooling degree days 1609 1327  
Since 1 June cooling degree days 1101 950  
Growing Degree Days 26 (Base 50)    
Moisture  
Dew Point 63 °F    
Average Humidity 68    
Maximum Humidity 93    
Minimum Humidity 43    
Precipitation  
Precipitation 1.52 in 0.06 in 1.66 in (1880)
Month to date precipitation 2.32 1.17  
Year to date precipitation 3.37 3.93  
Snow  
Snow 0.00 in - - ()
Month to date snowfall 0.0  
Since 1 June snowfall 0.0  
Since 1 July snowfall 0.0  
Snow Depth 0.00 in    
Sea Level Pressure  
Sea Level Pressure 29.98 in    
Wind  
Wind Speed 7 mph (NNW)    
Max Wind Speed 26 mph    
Max Gust Speed 36 mph    
Visibility 9 miles    
Events Rain , Thunderstorm    
T = Trace of Precipitation, MM = Missing Value Source: NWS Daily Summary

Daily Weather History Graph

Daily Weather History Graph

Search for Another Location

Airport or City:

Trip Planner

Search our weather history database for the weather conditions in past years. The results will help you decide how hot, cold, wet, or windy it might be!

Date:

Astronomy

Jul. 25, 2013 Rise Set
Actual Time 6:16 AM MDT 8:06 PM MDT
Civil Twilight 5:49 AM MDT 8:33 PM MDT
Nautical Twilight 5:17 AM MDT 9:06 PM MDT
Astronomical Twilight 4:42 AM MDT 9:40 PM MDT
Moon 10:07 PM MDT (7/25) 9:32 AM MDT (7/25)
Length of Visible Light 14h 43m
Length of Day
13h 49m
Waning Gibbous, 88% of the Moon is Illuminated
Jul 25
Waning Gibbous
Jul 29
Last Quarter
Aug 6
New
Aug 14
First Quarter
Aug 20
Full

Hourly Weather History & Observations

Time (MDT) Temp. Heat Index Dew Point Humidity Pressure Visibility Wind Dir Wind Speed Gust Speed Precip Events Conditions
12:10 AM 71.6 °F - 64.4 °F 78% 30.11 in 10.0 mi North 17.3 mph - N/A   Overcast
12:51 AM 71.1 °F - 64.9 °F 81% 29.88 in 10.0 mi North 17.3 mph - N/A   Overcast
1:51 AM 70.0 °F - 64.0 °F 81% 29.90 in 10.0 mi North 18.4 mph - N/A   Overcast
2:23 AM 69.8 °F - 64.4 °F 83% 30.11 in 10.0 mi NNW 17.3 mph - N/A Thunderstorm Thunderstorm
2:51 AM 71.1 °F - 63.0 °F 75% 29.89 in 10.0 mi NNW 12.7 mph - N/A Thunderstorm Thunderstorm
3:08 AM 68.0 °F - 64.4 °F 88% 30.14 in 3.0 mi WNW 24.2 mph 27.6 mph 0.09 in Rain , Thunderstorm Heavy Thunderstorms and Rain
3:51 AM 66.9 °F - 63.0 °F 87% 29.91 in 10.0 mi NW 16.1 mph - 0.49 in Rain , Thunderstorm Light Thunderstorms and Rain
4:51 AM 66.9 °F - 64.0 °F 90% 29.92 in 10.0 mi North 16.1 mph - 0.41 in Rain , Thunderstorm Light Thunderstorms and Rain
5:12 AM 68.0 °F - 64.4 °F 88% 30.14 in 10.0 mi NNE 15.0 mph - 0.01 in Thunderstorm Thunderstorm
5:51 AM 66.9 °F - 64.0 °F 90% 29.96 in 10.0 mi NE 8.1 mph - 0.01 in Thunderstorm Thunderstorm
6:06 AM 66.2 °F - 64.4 °F 94% 30.21 in 1.0 mi SSE 21.9 mph 35.7 mph 0.00 in Rain , Thunderstorm Heavy Thunderstorms and Rain
6:10 AM 64.4 °F - 59.0 °F 83% 30.19 in 0.5 mi WNW 16.1 mph 35.7 mph 0.16 in Rain , Thunderstorm Heavy Thunderstorms and Rain
6:19 AM 64.4 °F - 60.8 °F 88% 30.16 in 3.0 mi NNE 15.0 mph 33.4 mph 0.52 in Rain , Thunderstorm Heavy Thunderstorms and Rain
6:37 AM 66.2 °F - 62.6 °F 88% 30.14 in 8.0 mi North 10.4 mph 29.9 mph 0.61 in Rain , Thunderstorm Light Thunderstorms and Rain
6:51 AM 66.9 °F - 63.0 °F 87% 29.93 in 10.0 mi NNE 13.8 mph - 0.61 in   Overcast
7:51 AM 66.9 °F - 63.0 °F 87% 29.96 in 10.0 mi North 10.4 mph - N/A   Overcast
8:51 AM 68.0 °F - 64.0 °F 87% 29.98 in 10.0 mi NNW 10.4 mph - N/A   Overcast
9:51 AM 70.0 °F - 64.9 °F 84% 30.00 in 10.0 mi NNE 9.2 mph - N/A   Mostly Cloudy
10:51 AM 73.0 °F - 64.0 °F 73% 30.01 in 10.0 mi North 6.9 mph - N/A   Mostly Cloudy
11:51 AM 75.9 °F - 63.0 °F 64% 30.01 in 10.0 mi Calm Calm - N/A   Mostly Cloudy
12:51 PM 78.1 °F - 64.0 °F 62% 29.99 in 10.0 mi North 4.6 mph - N/A   Mostly Cloudy
1:51 PM 81.0 °F 82.7 °F 64.9 °F 58% 29.96 in 10.0 mi Calm Calm - N/A   Mostly Cloudy
2:51 PM 84.0 °F 85.4 °F 64.0 °F 51% 29.93 in 10.0 mi SW 5.8 mph - N/A   Mostly Cloudy
3:51 PM 84.9 °F 85.9 °F 63.0 °F 48% 29.92 in 10.0 mi NW 5.8 mph - N/A   Scattered Clouds
4:51 PM 86.0 °F 86.8 °F 63.0 °F 46% 29.89 in 10.0 mi WNW 4.6 mph - N/A   Scattered Clouds
5:51 PM 87.1 °F 87.8 °F 63.0 °F 44% 29.88 in 10.0 mi Calm Calm - N/A   Scattered Clouds
6:51 PM 87.1 °F 87.8 °F 63.0 °F 44% 29.88 in 10.0 mi SSW 4.6 mph - N/A   Scattered Clouds
7:51 PM 84.0 °F 84.9 °F 63.0 °F 49% 29.89 in 10.0 mi WSW 5.8 mph - N/A   Mostly Cloudy
8:51 PM 82.0 °F 83.1 °F 63.0 °F 52% 29.91 in 10.0 mi SSW 3.5 mph - N/A   Mostly Cloudy
9:51 PM 81.0 °F 82.2 °F 63.0 °F 54% 29.93 in 10.0 mi SW 4.6 mph - N/A   Scattered Clouds
10:51 PM 82.9 °F 83.2 °F 60.1 °F 46% 29.92 in 10.0 mi WSW 4.6 mph - N/A   Partly Cloudy
11:51 PM 80.1 °F 81.7 °F 64.0 °F 58% 29.92 in 10.0 mi South 5.8 mph - N/A   Mostly Cloudy